Retour au catalogue

COSMOS 1814 DEB *

ActifLEO
NORAD 18257·DEBRIS·🇷🇺 Russia

Lancé Jan 21, 1987 depuis Plesetsk Cosmodrome

Loading…

Prochains Passages (prochaines 24 heures)

TLE

FraisSource: Space-Track

Époque: Sep 14, 2026, 03:32 UTC

1 18257U 87006C   26257.14756594  .00001624  00000-0  26402-3 0  9997
2 18257  74.0331 152.4246 0006172 242.5096 117.5449 14.71964793168211

Suivez COSMOS 1814 DEB * en temps réel avec AllMySat

Download on the App Store